This is the latest recevied weather packets stored in our database for station/object W8DRH-13. If no packets are shown the sender has not sent any weather packets the latest 10 day(s).
| Time | Temp. | Humidity | Pressure | Rain* | Wind** | Luminosity | Snow |
|---|---|---|---|---|---|---|---|
| 1777553270 | 6.11° C | 95% | 1011.7 hPa | 0 mm | - | 49 W/m² | - |
| 1777552968 | 5.56° C | 95% | 1011.7 hPa | 0 mm | - | 51 W/m² | - |
| 1777552662 | 6.11° C | 95% | 1011.7 hPa | 0 mm | - | 42 W/m² | - |
| 1777552360 | 6.11° C | 95% | 1011.4 hPa | 0 mm | - | 48 W/m² | - |
| 1777552056 | 6.11° C | 95% | 1011.5 hPa | 0 mm | - | 53 W/m² | - |
| 1777551753 | 5.56° C | 95% | 1011.5 hPa | 0 mm | - | 22 W/m² | - |
| 1777551451 | 5.56° C | 95% | 1011.3 hPa | 0 mm | - | 24 W/m² | - |
| 1777551147 | 5.56° C | 96% | 1011.1 hPa | 0 mm | - | 27 W/m² | - |
| 1777550845 | 5.56° C | 96% | 1011.3 hPa | 0 mm | - | 43 W/m² | - |
| 1777550541 | 5.56° C | 96% | 1011.3 hPa | 0 mm | - | 36 W/m² | - |
| 1777550237 | 5.56° C | 96% | 1010.9 hPa | 0 mm | - | 27 W/m² | - |
| 1777549934 | 5.56° C | 96% | 1010.9 hPa | 0 mm | - | 16 W/m² | - |
| 1777549630 | 5.56° C | 96% | 1010.8 hPa | 0 mm | - | 16 W/m² | - |
| 1777549325 | 5.56° C | 96% | 1010.8 hPa | 0 mm | - | 19 W/m² | - |
| 1777549023 | 5.56° C | 96% | 1010.9 hPa | 0 mm | - | 20 W/m² | - |
| 1777548719 | 5° C | 96% | 1010.9 hPa | 0 mm | - | 27 W/m² | - |
| 1777548416 | 5° C | 96% | 1010.9 hPa | 0 mm | - | 27 W/m² | - |
| 1777548113 | 5° C | 96% | 1010.7 hPa | 0 mm | - | 19 W/m² | - |
| 1777547809 | 5° C | 96% | 1010.8 hPa | 0 mm | - | 14 W/m² | - |
| 1777547505 | 5° C | 96% | 1010.7 hPa | 0 mm | - | 13 W/m² | - |
| 1777547203 | 5° C | 96% | 1010.7 hPa | 0 mm | - | 8 W/m² | - |
| 1777546900 | 5° C | 95% | 1010.7 hPa | 0 mm | - | 10 W/m² | - |
| 1777546596 | 5° C | 96% | 1010.6 hPa | 0 mm | - | 8 W/m² | - |
| 1777546287 | 5° C | 95% | 1010.5 hPa | 0 mm | - | 4 W/m² | - |
| 1777545985 | 5° C | 95% | 1010.6 hPa | 0 mm | - | 1 W/m² | - |
* Rain latest hour (hover to see other rain measurements)
** Current wind speed in m/s (hover to see current wind gust speed)